Change the Weather History Date:

Friday, February 1, 2013

  Actual Average Record
Temperature  
Mean Temperature -7 °F 13 °F  
Max Temperature 16 °F 24 °F 58 °F (1931)
Min Temperature -31 °F 3 °F -36 °F (1996)
Degree Days  
Heating Degree Days 72 52  
Month to date heating degree days 72 52  
Since 1 July heating degree days 5085 5186  
Cooling Degree Days 0 0  
Month to date cooling degree days 0 0  
Year to date cooling degree days 0 0  
Moisture  
Dew Point -6 °F    
Average Humidity 76    
Maximum Humidity 84    
Minimum Humidity 68    
Precipitation  
Precipitation T in 0.01 in 0.60 in (1922)
Month to date precipitation T 0.01  
Year to date precipitation 0.78 0.48  
Snow  
Snow T in - - ()
Month to date snowfall T  
Since 1 July snowfall 23.5  
Snow Depth 6.00 in    
Sea Level Pressure  
Sea Level Pressure 30.18 in    
Wind  
Wind Speed 7 mph (SSW)    
Max Wind Speed 18 mph    
Max Gust Speed 22 mph    
Visibility 10 miles    
Events      
T = Trace of Precipitation, MM = Missing Value Source: NWS Daily Summary

Daily Weather History Graph

Daily Weather History Graph

Search for Another Location

Airport or City:

Trip Planner

Search our weather history database for the weather conditions in past years. The results will help you decide how hot, cold, wet, or windy it might be!

Date:

Astronomy

Feb. 01, 2013 Rise Set
Actual Time 7:54 AM CST 5:40 PM CST
Civil Twilight 7:22 AM CST 6:12 PM CST
Nautical Twilight 6:47 AM CST 6:47 PM CST
Astronomical Twilight 6:12 AM CST 7:22 PM CST
Moon No Moon Rise 10:08 AM CST (2/1)
Length of Visible Light 10h 49m
Length of Day
9h 46m
Waning Gibbous, 70% of the Moon is Illuminated
Feb 1
Waning Gibbous
Feb 3
Last Quarter
Feb 10
New
Feb 17
First Quarter
Feb 25
Full

Hourly Weather History & Observations

Time (CST) Temp. Windchill Dew Point Humidity Pressure Visibility Wind Dir Wind Speed Gust Speed Precip Events Conditions
12:53 AM -27.9 °F -46.6 °F -33.0 °F 77% 30.43 in 10.0 mi SSW 6.9 mph - N/A   Clear
1:53 AM -29.0 °F -41.0 °F -33.0 °F 81% 30.42 in 10.0 mi SSW 3.5 mph - N/A   Clear
2:53 AM -29.0 °F -46.0 °F -34.1 °F 77% 30.40 in 10.0 mi SSW 5.8 mph - N/A   Clear
3:53 AM -27.9 °F - -34.1 °F 73% 30.38 in 10.0 mi Calm Calm - N/A   Clear
4:53 AM -24.0 °F - -29.9 °F 74% 30.35 in 10.0 mi Calm Calm - N/A   Clear
5:53 AM -18.9 °F -32.0 °F -25.1 °F 74% 30.32 in 10.0 mi SE 4.6 mph - N/A   Overcast
6:53 AM -14.1 °F -28.3 °F -20.0 °F 75% 30.29 in 10.0 mi SSE 5.8 mph - N/A   Mostly Cloudy
7:53 AM -13.0 °F -28.6 °F -18.9 °F 75% 30.26 in 10.0 mi SSE 6.9 mph - N/A   Mostly Cloudy
8:53 AM -7.1 °F -25.0 °F -13.0 °F 75% 30.23 in 10.0 mi SSE 10.4 mph - N/A   Overcast
9:53 AM -2.0 °F -19.6 °F -9.0 °F 72% 30.20 in 10.0 mi SSE 11.5 mph - N/A   Overcast
10:53 AM 3.9 °F -13.0 °F -5.1 °F 66% 30.16 in 10.0 mi South 12.7 mph - N/A   Overcast
11:53 AM 5.0 °F -13.6 °F -2.9 °F 70% 30.14 in 10.0 mi South 16.1 mph - 0.00 in   Overcast
12:53 PM 7.0 °F -11.0 °F -0.0 °F 73% 30.10 in 10.0 mi South 16.1 mph - N/A   Overcast
1:53 PM 9.0 °F -6.6 °F 1.9 °F 73% 30.07 in 10.0 mi South 12.7 mph - N/A   Overcast
2:33 PM 10.4 °F -2.4 °F 3.2 °F 73% 29.96 in 10.0 mi SSW 9.2 mph - N/A   Overcast
2:53 PM 10.9 °F -1.8 °F 3.9 °F 73% 30.08 in 10.0 mi South 9.2 mph - N/A   Overcast
3:53 PM 12.0 °F 1.5 °F 5.0 °F 73% 30.08 in 10.0 mi SSW 6.9 mph - N/A   Overcast
4:30 PM 12.2 °F 1.7 °F 5.0 °F 73% 29.96 in 10.0 mi SW 6.9 mph - N/A   Overcast
4:53 PM 12.9 °F 5.2 °F 6.1 °F 74% 30.08 in 10.0 mi SW 4.6 mph - N/A   Overcast
5:53 PM 12.0 °F - 6.1 °F 77% 30.09 in 10.0 mi Calm Calm - N/A   Overcast
6:53 PM 9.0 °F - 3.9 °F 80% 30.11 in 10.0 mi Calm Calm - N/A   Mostly Cloudy
7:53 PM 10.9 °F - 5.0 °F 77% 30.12 in 10.0 mi Calm Calm - N/A   Overcast
8:53 PM 14.0 °F 2.0 °F 7.0 °F 74% 30.13 in 10.0 mi NW 9.2 mph - N/A   Overcast
9:53 PM 16.0 °F 1.1 °F 8.1 °F 71% 30.14 in 10.0 mi NNW 15.0 mph - N/A   Overcast
10:21 PM 15.8 °F 2.1 °F 8.6 °F 73% 30.05 in 10.0 mi NNW 12.7 mph - N/A   Overcast
10:53 PM 15.1 °F 1.8 °F 8.1 °F 74% 30.15 in 10.0 mi North 11.5 mph - N/A   Overcast
11:53 PM 15.1 °F 3.3 °F 8.1 °F 74% 30.17 in 10.0 mi North 9.2 mph - N/A   Overcast